TimeEEST,TemperatureF,Dew PointF,Humidity,Sea Level PressureIn,VisibilityMPH,Wind Direction,Wind SpeedMPH,Gust SpeedMPH,PrecipitationIn,Events,Conditions,WindDirDegrees,DateUTC
12:20 AM,62.6,62.6,100,30.12,-9999.0,NE,9.2,-,N/A,,Clear,40,2012-10-05 21:20:00
12:50 AM,62.6,62.6,100,30.12,-9999.0,NNE,10.4,-,N/A,,Clear,30,2012-10-05 21:50:00
1:20 AM,62.6,62.6,100,30.12,-9999.0,NNE,10.4,-,N/A,,Clear,30,2012-10-05 22:20:00
1:50 AM,62.6,62.6,100,30.12,-9999.0,NNE,9.2,-,N/A,,Clear,30,2012-10-05 22:50:00
2:20 AM,62.6,60.8,94,30.12,-9999.0,NNE,9.2,-,N/A,,Clear,30,2012-10-05 23:20:00
3:20 AM,60.8,60.8,100,30.12,-9999.0,NNE,8.1,-,N/A,,Clear,30,2012-10-06 00:20:00
3:50 AM,60.8,60.8,100,30.12,-9999.0,NNE,8.1,-,N/A,,Clear,30,2012-10-06 00:50:00
4:20 AM,62.6,60.8,94,30.12,-9999.0,NNE,9.2,-,N/A,,Clear,30,2012-10-06 01:20:00
5:20 AM,62.6,60.8,94,30.12,-9999.0,NNE,10.4,-,N/A,,Clear,20,2012-10-06 02:20:00
5:50 AM,62.6,60.8,94,30.15,-9999.0,NNE,9.2,-,N/A,,Clear,20,2012-10-06 02:50:00
6:20 AM,62.6,62.6,100,30.15,5.0,NNE,10.4,-,N/A,,Unknown,20,2012-10-06 03:20:00
7:20 AM,62.6,60.8,94,30.15,3.7,NNE,10.4,-,N/A,,Unknown,30,2012-10-06 04:20:00
7:50 AM,62.6,60.8,94,30.18,3.7,North,8.1,-,N/A,,Unknown,10,2012-10-06 04:50:00
8:20 AM,64.4,62.6,94,30.18,4.3,NNE,10.4,-,N/A,,Unknown,20,2012-10-06 05:20:00
8:50 AM,66.2,64.4,94,30.18,5.0,North,10.4,-,N/A,,Unknown,10,2012-10-06 05:50:00
9:20 AM,68.0,64.4,88,30.18,5.0,NNE,11.5,-,N/A,,Unknown,20,2012-10-06 06:20:00
9:50 AM,69.8,64.4,83,30.18,6.2,NE,12.7,-,N/A,,Partly Cloudy,40,2012-10-06 06:50:00
10:20 AM,71.6,64.4,78,30.18,6.2,NE,12.7,-,N/A,,Scattered Clouds,40,2012-10-06 07:20:00
10:50 AM,73.4,62.6,69,30.18,6.2,NE,13.8,-,N/A,,Scattered Clouds,40,2012-10-06 07:50:00
11:20 AM,73.4,60.8,65,30.18,6.2,ENE,11.5,-,N/A,,Scattered Clouds,60,2012-10-06 08:20:00
11:50 AM,75.2,60.8,61,30.15,6.2,NE,12.7,-,N/A,,Scattered Clouds,50,2012-10-06 08:50:00
12:20 PM,75.2,60.8,61,30.15,6.2,NE,12.7,-,N/A,,Scattered Clouds,50,2012-10-06 09:20:00
12:50 PM,77.0,59.0,54,30.15,6.2,NE,11.5,-,N/A,,Scattered Clouds,50,2012-10-06 09:50:00
1:20 PM,77.0,59.0,54,30.15,6.2,NNE,15.0,-,N/A,,Scattered Clouds,30,2012-10-06 10:20:00
2:20 PM,77.0,57.2,50,30.12,6.2,NE,13.8,-,N/A,,Scattered Clouds,40,2012-10-06 11:20:00
2:50 PM,77.0,55.4,47,30.12,6.2,ENE,13.8,-,N/A,,Partly Cloudy,60,2012-10-06 11:50:00
3:20 PM,77.0,55.4,47,30.12,6.2,NE,13.8,-,N/A,,Partly Cloudy,50,2012-10-06 12:20:00
3:50 PM,77.0,55.4,47,30.12,6.2,NE,15.0,-,N/A,,Partly Cloudy,50,2012-10-06 12:50:00
4:20 PM,75.2,57.2,53,30.12,6.2,NE,15.0,-,N/A,,Partly Cloudy,40,2012-10-06 13:20:00
4:50 PM,75.2,57.2,53,30.12,-9999.0,NNE,16.1,-,N/A,,Clear,30,2012-10-06 13:50:00
5:20 PM,73.4,57.2,57,30.12,-9999.0,NNE,15.0,-,N/A,,Clear,30,2012-10-06 14:20:00
5:50 PM,71.6,59.0,64,30.12,-9999.0,NE,15.0,-,N/A,,Clear,40,2012-10-06 14:50:00
6:20 PM,69.8,59.0,68,30.12,-9999.0,NE,12.7,-,N/A,,Clear,40,2012-10-06 15:20:00
6:50 PM,68.0,59.0,73,30.12,-9999.0,NE,12.7,-,N/A,,Clear,50,2012-10-06 15:50:00
7:20 PM,66.2,60.8,83,30.12,-9999.0,NE,12.7,-,N/A,,Clear,50,2012-10-06 16:20:00
7:50 PM,66.2,60.8,83,30.12,-9999.0,NE,12.7,-,N/A,,Clear,50,2012-10-06 16:50:00
8:20 PM,64.4,60.8,88,30.12,-9999.0,NE,12.7,-,N/A,,Clear,40,2012-10-06 17:20:00
8:50 PM,64.4,60.8,88,30.12,-9999.0,NNE,12.7,-,N/A,,Clear,30,2012-10-06 17:50:00
9:20 PM,62.6,60.8,94,30.12,-9999.0,NE,12.7,-,N/A,,Clear,40,2012-10-06 18:20:00
9:50 PM,62.6,60.8,94,30.12,-9999.0,NE,11.5,-,N/A,,Clear,50,2012-10-06 18:50:00
10:20 PM,62.6,60.8,94,30.12,-9999.0,NE,11.5,-,N/A,,Clear,50,2012-10-06 19:20:00
10:50 PM,62.6,60.8,94,30.12,-9999.0,ENE,10.4,-,N/A,,Clear,60,2012-10-06 19:50:00
11:20 PM,62.6,60.8,94,30.09,-9999.0,NE,9.2,-,N/A,,Clear,50,2012-10-06 20:20:00
11:50 PM,60.8,60.8,100,30.09,-9999.0,NE,10.4,-,N/A,,Clear,50,2012-10-06 20:50:00